Weather History for Walnut Ridge, AR

Change the Weather History Date:

Friday, November 23, 2012

  Actual Average Record
Temperature  
Mean Temperature 45 °F -  
Max Temperature 57 °F 53 °F 75 °F (2005)
Min Temperature 33 °F 37 °F 24 °F (2008)
Degree Days  
Heating Degree Days 20    
Moisture  
Dew Point 35 °F    
Average Humidity 62    
Maximum Humidity 100    
Minimum Humidity 36    
Precipitation  
Precipitation 0.03 in - - ()
Sea Level Pressure  
Sea Level Pressure 30.28 in    
Wind  
Wind Speed 11 mph (NW)    
Max Wind Speed 23 mph    
Max Gust Speed 28 mph    
Visibility 9 miles    
Events      
Averages and records for this station are not official NWS values.
T = Trace of Precipitation, MM = Missing Value Source: NWS Daily Summary

Daily Weather History Graph

Daily Weather History Graph

Search for Another Location

Airport:

Trip Planner

Search our weather history database for the weather conditions in past years. The results will help you decide how hot, cold, wet, or windy it might be!

Date:

Astronomy

Nov. 23, 2012 Rise Set
Actual Time 6:48 AM CST 4:51 PM CST
Civil Twilight 6:21 AM CST 5:19 PM CST
Nautical Twilight 5:49 AM CST 5:50 PM CST
Astronomical Twilight 5:18 AM CST 6:21 PM CST
Moon 1:59 PM CST (11/23) 2:15 AM CST (11/23)
Length of Visible Light 10h 58m
Length of Day
10h 02m
Waxing Gibbous, 80% of the Moon is Illuminated
Nov 23
Waxing Gibbous
Nov 28
Full
Dec 6
Last Quarter
Dec 13
New
Dec 19
First Quarter

Hourly Weather History & Observations

Time (CST) Temp. Windchill Dew Point Humidity Pressure Visibility Wind Dir Wind Speed Gust Speed Precip Events Conditions
12:55 AM 53.6 °F - 53.6 °F 100% 30.13 in 5.0 mi SW 6.9 mph - 0.02 in   Overcast
1:15 AM 55.4 °F - 53.6 °F 94% 30.13 in 5.0 mi SW 8.1 mph - N/A   Overcast
1:36 AM 55.4 °F - 53.6 °F 94% 30.13 in 5.0 mi SSW 8.1 mph - 0.01 in   Mostly Cloudy
1:55 AM 55.4 °F - 53.6 °F 94% 30.13 in 6.0 mi SW 8.1 mph - 0.01 in   Mostly Cloudy
2:15 AM 55.4 °F - 53.6 °F 94% 30.13 in 7.0 mi WSW 6.9 mph - N/A   Mostly Cloudy
2:55 AM 53.6 °F - 53.6 °F 100% 30.16 in 3.0 mi NW 6.9 mph - N/A   Overcast
3:15 AM 53.6 °F - 53.6 °F 100% 30.17 in 5.0 mi WNW 4.6 mph - N/A   Overcast
3:55 AM 53.6 °F - 53.6 °F 100% 30.17 in 8.0 mi NW 10.4 mph - N/A   Overcast
4:15 AM 53.6 °F - 51.8 °F 94% 30.18 in 10.0 mi NW 13.8 mph - N/A   Overcast
4:35 AM 53.6 °F - 48.2 °F 82% 30.19 in 10.0 mi NNW 15.0 mph - N/A   Overcast
4:56 AM 51.8 °F - 44.6 °F 76% 30.20 in 10.0 mi NNW 15.0 mph - N/A   Mostly Cloudy
5:15 AM 50.0 °F - 42.8 °F 76% 30.22 in 10.0 mi NW 16.1 mph - N/A   Clear
5:35 AM 48.2 °F - 39.2 °F 71% 30.24 in 10.0 mi NNW 15.0 mph - N/A   Clear
6:15 AM 48.2 °F - 39.2 °F 71% 30.25 in 10.0 mi NNW 11.5 mph - N/A   Clear
6:35 AM 46.4 °F 41.9 °F 39.2 °F 76% 30.26 in 10.0 mi NNW 9.2 mph - N/A   Clear
7:15 AM 44.6 °F 39.2 °F 37.4 °F 76% 30.28 in 10.0 mi NW 10.4 mph - N/A   Clear
7:35 AM 44.6 °F 40.2 °F 39.2 °F 81% 30.29 in 10.0 mi NW 8.1 mph - N/A   Clear
7:56 AM 46.4 °F 42.9 °F 39.2 °F 76% 30.30 in 10.0 mi NW 6.9 mph - N/A   Clear
8:15 AM 48.2 °F - 37.4 °F 66% 30.31 in 10.0 mi NW 6.9 mph - N/A   Clear
8:35 AM 50.0 °F - 37.4 °F 62% 30.31 in 10.0 mi WNW 5.8 mph - N/A   Clear
9:15 AM 51.8 °F - 37.4 °F 58% 30.30 in 10.0 mi NW 9.2 mph - N/A   Clear
9:35 AM 53.6 °F - 35.6 °F 51% 30.30 in 10.0 mi NW 11.5 mph - N/A   Clear
10:15 AM 55.4 °F - 33.8 °F 44% 30.30 in 10.0 mi WNW 19.6 mph 24.2 mph N/A   Clear
10:35 AM 55.4 °F - 33.8 °F 44% 30.29 in 10.0 mi NW 16.1 mph - N/A   Clear
11:15 AM 57.2 °F - 32.0 °F 38% 30.28 in 10.0 mi NW 16.1 mph 23.0 mph N/A   Clear
11:55 AM 57.2 °F - 30.2 °F 36% 30.27 in 10.0 mi WNW 19.6 mph 25.3 mph N/A   Clear
12:15 PM 57.2 °F - 32.0 °F 38% 30.27 in 10.0 mi WNW 17.3 mph 23.0 mph N/A   Clear
12:35 PM 57.2 °F - 30.2 °F 36% 30.27 in 10.0 mi NW 20.7 mph 25.3 mph N/A   Clear
12:55 PM 57.2 °F - 30.2 °F 36% 30.27 in 10.0 mi NW 20.7 mph 27.6 mph N/A   Clear
1:15 PM 55.4 °F - 30.2 °F 38% 30.27 in 10.0 mi WNW 17.3 mph 24.2 mph N/A   Clear
1:35 PM 55.4 °F - 30.2 °F 38% 30.27 in 10.0 mi NW 21.9 mph - N/A   Clear
1:55 PM 55.4 °F - 32.0 °F 41% 30.27 in 10.0 mi NW 20.7 mph - N/A   Clear
2:15 PM 55.4 °F - 30.2 °F 38% 30.27 in 10.0 mi NW 23.0 mph - N/A   Clear
2:35 PM 53.6 °F - 30.2 °F 41% 30.28 in 10.0 mi NW 17.3 mph - N/A   Clear
2:55 PM 53.6 °F - 30.2 °F 41% 30.28 in 10.0 mi NW 16.1 mph - N/A   Clear
3:16 PM 53.6 °F - 30.2 °F 41% 30.29 in 10.0 mi NW 23.0 mph 26.5 mph N/A   Clear
3:35 PM 51.8 °F - 30.2 °F 44% 30.30 in 10.0 mi NW 21.9 mph 27.6 mph N/A   Clear
3:55 PM 51.8 °F - 30.2 °F 44% 30.30 in 10.0 mi NW 16.1 mph - N/A   Clear
4:35 PM 48.2 °F - 28.4 °F 46% 30.31 in 10.0 mi NW 16.1 mph - N/A   Clear
4:55 PM 46.4 °F 40.1 °F 28.4 °F 50% 30.31 in 10.0 mi NW 15.0 mph - N/A   Clear
5:35 PM 44.6 °F 39.2 °F 30.2 °F 57% 30.33 in 10.0 mi NW 10.4 mph - N/A   Clear
5:55 PM 42.8 °F 37.5 °F 30.2 °F 61% 30.33 in 10.0 mi NW 9.2 mph - N/A   Clear
6:16 PM 41.0 °F 35.8 °F 30.2 °F 65% 30.34 in 10.0 mi NW 8.1 mph - N/A   Clear
6:35 PM 42.8 °F 36.6 °F 28.4 °F 57% 30.34 in 10.0 mi NW 11.5 mph - N/A   Clear
7:15 PM 42.8 °F 36.6 °F 26.6 °F 53% 30.34 in 10.0 mi NW 11.5 mph - N/A   Clear
7:35 PM 41.0 °F 34.7 °F 26.6 °F 57% 30.35 in 10.0 mi NW 10.4 mph - N/A   Clear
7:55 PM 41.0 °F 33.9 °F 26.6 °F 57% 30.36 in 10.0 mi NW 12.7 mph - N/A   Clear
8:16 PM 41.0 °F 34.3 °F 26.6 °F 57% 30.36 in 10.0 mi NW 11.5 mph - N/A   Clear
8:35 PM 39.2 °F 32.0 °F 24.8 °F 56% 30.36 in 10.0 mi NW 11.5 mph - N/A   Clear
8:55 PM 39.2 °F 31.2 °F 24.8 °F 56% 30.37 in 10.0 mi NNW 13.8 mph - N/A   Clear
9:35 PM 37.4 °F 30.8 °F 24.8 °F 60% 30.38 in 10.0 mi NNW 9.2 mph - N/A   Clear
9:55 PM 37.4 °F 31.4 °F 24.8 °F 60% 30.38 in 10.0 mi NW 8.1 mph - N/A   Clear
10:35 PM 35.6 °F 28.0 °F 24.8 °F 65% 30.38 in 10.0 mi NW 10.4 mph - N/A   Clear
10:55 PM 35.6 °F 28.6 °F 24.8 °F 65% 30.39 in 10.0 mi NW 9.2 mph - N/A   Clear
11:15 PM 33.8 °F 26.4 °F 24.8 °F 70% 30.39 in 10.0 mi NNW 9.2 mph - N/A   Clear
11:36 PM 33.8 °F 27.7 °F 24.8 °F 70% 30.38 in 10.0 mi NW 6.9 mph - N/A   Clear
11:55 PM 33.8 °F 27.7 °F 23.0 °F 65% 30.38 in 10.0 mi NW 6.9 mph - N/A   Clear